Kahului, HI

12:44 AM HST on May 29, 2017 (GMT -1000)
Kahului

Weather History for PHOG - June, 2014

Change the Weather History Date:

Wednesday, June 18, 2014

  Actual Average Record
Temperature  
Mean Temperature 79 °F 78 °F  
Max Temperature 89 °F 87 °F 92 °F (1969)
Min Temperature 68 °F 70 °F 63 °F (1950)
Degree Days  
Heating Degree Days 0 0  
Month to date heating degree days 0 0  
Since 1 June heating degree days 0 0  
Since 1 July heating degree days 0 0  
Cooling Degree Days 14 13  
Month to date cooling degree days 255 228  
Year to date cooling degree days 1751 1487  
Since 1 June cooling degree days 255 228  
Growing Degree Days 28 (Base 50)    
Moisture  
Dew Point 64 °F    
Average Humidity 61    
Maximum Humidity 79    
Minimum Humidity 43    
Precipitation  
Precipitation 0.00 in 0.01 in 0.13 in (1990)
Month to date precipitation 0.02 0.11  
Year to date precipitation 13.98 9.61  
Snow  
Snow 0.00 in - - ()
Month to date snowfall 0.0  
Since 1 June snowfall 0.0  
Since 1 July snowfall 0.0  
Snow Depth 0.00 in    
Sea Level Pressure  
Sea Level Pressure 30.07 in    
Wind  
Wind Speed 14 mph (NE)    
Max Wind Speed 28 mph    
Max Gust Speed 35 mph    
Visibility 10 miles    
Events      
T = Trace of Precipitation, MM = Missing Value Source: NWS Daily Summary

Daily Weather History Graph

Daily Weather History Graph

Search for Another Location

Airport or City:

Trip Planner

Search our weather history database for the weather conditions in past years. The results will help you decide how hot, cold, wet, or windy it might be!

Date:

Astronomy

Jun. 18, 2014 Rise Set
Actual Time 5:44 AM HST 7:09 PM HST
Civil Twilight 5:20 AM HST 7:33 PM HST
Nautical Twilight 4:50 AM HST 8:03 PM HST
Astronomical Twilight 4:19 AM HST 8:33 PM HST
Moon No Moon Rise 11:37 AM HST (6/18)
Length of Visible Light 14h 13m
Length of Day
13h 24m
Waning Gibbous, 60% of the Moon is Illuminated
Jun 18
Waning Gibbous
Jun 19
Last Quarter
Jun 26
New
Jul 5
First Quarter
Jul 12
Full

Hourly Weather History & Observations

Time (HST) Temp. Heat Index Dew Point Humidity Pressure Visibility Wind Dir Wind Speed Gust Speed Precip Events Conditions
12:54 AM 73.9 °F - 64.9 °F 73% 30.03 in 10.0 mi NE 12.7 mph - N/A   Clear
1:54 AM 73.0 °F - 64.9 °F 76% 30.03 in 10.0 mi NE 8.1 mph - N/A   Clear
2:37 AM 73.4 °F - 64.4 °F 73% 30.02 in 10.0 mi NE 10.4 mph - N/A   Partly Cloudy
2:54 AM 72.0 °F - 64.9 °F 78% 30.03 in 10.0 mi NE 6.9 mph - N/A   Clear
3:54 AM 70.0 °F - 62.1 °F 76% 30.03 in 10.0 mi ESE 3.5 mph - N/A   Clear
4:54 AM 70.0 °F - 62.1 °F 76% 30.04 in 10.0 mi ENE 8.1 mph - N/A   Clear
5:54 AM 73.0 °F - 64.9 °F 76% 30.05 in 10.0 mi ENE 9.2 mph - N/A   Partly Cloudy
6:54 AM 75.9 °F - 64.9 °F 69% 30.07 in 10.0 mi NE 11.5 mph - N/A   Partly Cloudy
7:54 AM 79.0 °F - 64.9 °F 62% 30.09 in 10.0 mi ENE 15.0 mph 20.7 mph N/A   Partly Cloudy
8:54 AM 81.0 °F 83.0 °F 66.0 °F 60% 30.09 in 10.0 mi ENE 16.1 mph 20.7 mph N/A   Partly Cloudy
9:54 AM 82.9 °F 84.4 °F 64.0 °F 53% 30.10 in 10.0 mi ENE 19.6 mph 28.8 mph N/A   Scattered Clouds
10:54 AM 84.9 °F 85.4 °F 62.1 °F 46% 30.09 in 10.0 mi NE 23.0 mph 28.8 mph N/A   Scattered Clouds
11:54 AM 86.0 °F 86.3 °F 62.1 °F 44% 30.08 in 10.0 mi NE 23.0 mph 29.9 mph N/A   Scattered Clouds
12:54 PM 87.1 °F 87.8 °F 63.0 °F 44% 30.06 in 10.0 mi ENE 20.7 mph 32.2 mph N/A   Scattered Clouds
1:54 PM 88.0 °F 89.3 °F 64.0 °F 45% 30.06 in 10.0 mi NE 26.5 mph 31.1 mph N/A   Scattered Clouds
2:54 PM 86.0 °F 87.6 °F 64.9 °F 49% 30.05 in 10.0 mi NE 21.9 mph 32.2 mph N/A   Scattered Clouds
3:54 PM 84.9 °F 86.6 °F 64.9 °F 51% 30.04 in 10.0 mi NE 21.9 mph 31.1 mph N/A   Scattered Clouds
4:54 PM 82.9 °F 84.6 °F 64.9 °F 54% 30.04 in 10.0 mi NE 21.9 mph 27.6 mph N/A   Partly Cloudy
5:54 PM 81.0 °F 82.5 °F 64.0 °F 56% 30.06 in 10.0 mi NE 19.6 mph 26.5 mph N/A   Partly Cloudy
6:54 PM 78.1 °F - 63.0 °F 60% 30.07 in 10.0 mi NE 13.8 mph 21.9 mph N/A   Partly Cloudy
7:54 PM 75.9 °F - 64.9 °F 69% 30.09 in 10.0 mi NE 13.8 mph 23.0 mph N/A   Partly Cloudy
8:54 PM 75.9 °F - 64.9 °F 69% 30.10 in 10.0 mi NE 13.8 mph - N/A   Clear
9:54 PM 73.9 °F - 64.9 °F 73% 30.11 in 10.0 mi NE 10.4 mph - N/A   Clear
10:54 PM 73.9 °F - 64.9 °F 73% 30.11 in 10.0 mi NE 11.5 mph - N/A   Clear
11:54 PM 73.9 °F - 64.9 °F 73% 30.10 in 10.0 mi NE 10.4 mph - N/A   Clear